STARLINK-35168

Last updated on Mon Oct 06 2025 00:02:05 GMT+0000 (Coordinated Universal Time)

1 65509U 25198T 25278.50001156 .00000813 00000+0 22678-4 0 9992 2 65509 53.1589 280.4455 0001196 78.8798 100.1282 15.49294883 5585

Satellite not in orbit

STARLINK-35168